This is the latest recevied weather packets stored in our database for station/object ED2YAA-10. If no packets are shown the sender has not sent any weather packets the latest 10 day(s).
| Time | Temp. | Humidity | Pressure | Rain* | Wind** | Luminosity | Snow |
|---|---|---|---|---|---|---|---|
| 1777078625 | 22.22° C | 37% | 932.5 hPa | - | - | - | - |
| 1777077724 | 22.78° C | 37% | 932.6 hPa | - | - | - | - |
| 1777076827 | 22.78° C | 37% | 932.6 hPa | - | - | - | - |
| 1777075924 | 22.78° C | 37% | 932.7 hPa | - | - | - | - |
| 1777075023 | 23.33° C | 37% | 932.8 hPa | - | - | - | - |
| 1777074123 | 23.33° C | 37% | 932.9 hPa | - | - | - | - |
| 1777073222 | 23.33° C | 37% | 932.9 hPa | - | - | - | - |
| 1777072322 | 23.33° C | 37% | 933 hPa | - | - | - | - |
| 1777071422 | 23.33° C | 37% | 933 hPa | - | - | - | - |
| 1777070521 | 23.33° C | 37% | 932.9 hPa | - | - | - | - |
| 1777069621 | 23.89° C | 37% | 932.8 hPa | - | - | - | - |
| 1777068721 | 23.89° C | 37% | 932.9 hPa | - | - | - | - |
| 1777067821 | 24.44° C | 37% | 933 hPa | - | - | - | - |
| 1777066921 | 23.89° C | 37% | 933.1 hPa | - | - | - | - |
| 1777066021 | 24.44° C | 37% | 933 hPa | - | - | - | - |
| 1777065121 | 24.44° C | 36% | 932.9 hPa | - | - | - | - |
| 1777064221 | 24.44° C | 35% | 932.7 hPa | - | - | - | - |
| 1777063321 | 24.44° C | 36% | 932.5 hPa | - | - | - | - |
| 1777062421 | 25° C | 35% | 932.6 hPa | - | - | - | - |
| 1777061521 | 25° C | 35% | 932.5 hPa | - | - | - | - |
| 1777060621 | 25° C | 35% | 932.3 hPa | - | - | - | - |
| 1777059721 | 25.56° C | 35% | 932.2 hPa | - | - | - | - |
| 1777058821 | 25.56° C | 34% | 932.2 hPa | - | - | - | - |
| 1777057920 | 25.56° C | 34% | 931.9 hPa | - | - | - | - |
| 1777057043 | 26.11° C | 33% | 931.8 hPa | - | - | - | - |
* Rain since midnight (hover to see other rain measurements)
** Current wind speed in m/s (hover to see current wind gust speed)